Time,TemperatureF,DewpointF,PressureIn,WindDirection,WindDirectionDegrees,WindSpeedMPH,WindSpeedGustMPH,Humidity,HourlyPrecipIn,Conditions,Clouds,dailyrainin,SoftwareType,DateUTC
2014-01-20 00:05:00,38.0,14.6,30.13,SSE,158,0.0,2.0,38,0.00,,,-99.99,Weather View 32 v60,2014-01-20 08:05:00,
2014-01-20 00:10:00,38.0,15.2,30.13,SSE,158,0.0,2.0,39,0.00,,,-99.99,Weather View 32 v60,2014-01-20 08:10:00,
2014-01-20 00:15:00,38.0,15.2,30.13,SSE,158,0.0,2.0,39,0.00,,,-99.99,Weather View 32 v60,2014-01-20 08:15:00,
2014-01-20 00:20:00,38.0,15.2,30.13,SSE,158,0.0,2.0,39,0.00,,,-99.99,Weather View 32 v60,2014-01-20 08:20:00,
2014-01-20 00:25:00,37.0,14.3,30.13,SSE,158,0.0,1.0,39,0.00,,,-99.99,Weather View 32 v60,2014-01-20 08:25:00,
2014-01-20 00:35:00,37.0,14.3,30.12,SSE,158,0.0,0.0,39,0.00,,,-99.99,Weather View 32 v60,2014-01-20 08:35:00,
2014-01-20 00:40:00,37.0,14.9,30.13,SSE,158,0.0,0.0,40,0.00,,,-99.99,Weather View 32 v60,2014-01-20 08:40:00,
2014-01-20 00:45:00,37.0,14.9,30.13,SSW,202,0.0,0.0,40,0.00,,,-99.99,Weather View 32 v60,2014-01-20 08:45:00,
2014-01-20 00:50:00,37.0,14.9,30.12,ESE,112,0.0,1.0,40,0.00,,,-99.99,Weather View 32 v60,2014-01-20 08:50:00,
2014-01-20 00:55:00,37.0,14.9,30.12,South,180,0.0,1.0,40,0.00,,,-99.99,Weather View 32 v60,2014-01-20 08:55:00,
2014-01-20 01:00:00,37.0,14.9,30.12,SSE,158,0.0,1.0,40,0.00,,,-99.99,Weather View 32 v60,2014-01-20 09:00:00,
2014-01-20 01:05:00,37.0,14.9,30.12,SSE,158,0.0,1.0,40,0.00,,,-99.99,Weather View 32 v60,2014-01-20 09:05:00,
2014-01-20 01:15:00,36.0,14.6,30.12,NE,45,0.0,1.0,41,0.00,,,-99.99,Weather View 32 v60,2014-01-20 09:15:00,
2014-01-20 01:20:00,36.0,14.0,30.13,East,90,0.0,1.0,40,0.00,,,-99.99,Weather View 32 v60,2014-01-20 09:20:00,
2014-01-20 01:25:00,36.0,13.4,30.13,SE,135,0.0,1.0,39,0.00,,,-99.99,Weather View 32 v60,2014-01-20 09:25:00,
2014-01-20 01:30:00,36.0,13.4,30.13,WNW,292,0.0,2.0,39,0.00,,,-99.99,Weather View 32 v60,2014-01-20 09:30:00,
2014-01-20 01:35:00,37.0,13.7,30.13,WSW,248,1.0,3.0,38,0.00,,,-99.99,Weather View 32 v60,2014-01-20 09:35:00,
2014-01-20 01:40:00,37.0,13.1,30.13,West,270,1.0,3.0,37,0.00,,,-99.99,Weather View 32 v60,2014-01-20 09:40:00,
2014-01-20 01:45:00,37.0,12.5,30.13,West,270,0.0,3.0,36,0.00,,,-99.99,Weather View 32 v60,2014-01-20 09:45:00,
2014-01-20 01:50:00,38.0,12.7,30.13,WNW,292,1.0,3.0,35,0.00,,,-99.99,Weather View 32 v60,2014-01-20 09:50:00,
2014-01-20 02:00:00,38.0,12.1,30.13,West,270,1.0,3.0,34,0.00,,,-99.99,Weather View 32 v60,2014-01-20 10:00:00,
2014-01-20 02:10:00,39.0,12.3,30.14,NNW,338,0.0,3.0,33,0.00,,,-99.99,Weather View 32 v60,2014-01-20 10:10:00,
2014-01-20 02:15:00,39.0,12.3,30.14,North,0,0.0,3.0,33,0.00,,,-99.99,Weather View 32 v60,2014-01-20 10:15:00,
2014-01-20 02:20:00,39.0,11.6,30.14,NE,45,4.0,6.0,32,0.00,,,-99.99,Weather View 32 v60,2014-01-20 10:20:00,
2014-01-20 02:25:00,40.0,11.8,30.14,North,0,0.0,6.0,31,0.00,,,-99.99,Weather View 32 v60,2014-01-20 10:25:00,
2014-01-20 02:30:00,40.0,11.8,30.14,WNW,292,1.0,6.0,31,0.00,,,-99.99,Weather View 32 v60,2014-01-20 10:30:00,
2014-01-20 02:40:00,40.0,11.8,30.14,ESE,112,0.0,6.0,31,0.00,,,-99.99,Weather View 32 v60,2014-01-20 10:40:00,
2014-01-20 02:45:00,40.0,11.8,30.14,ESE,112,0.0,6.0,31,0.00,,,-99.99,Weather View 32 v60,2014-01-20 10:45:00,
2014-01-20 02:50:00,40.0,11.8,30.14,SSE,158,0.0,6.0,31,0.00,,,-99.99,Weather View 32 v60,2014-01-20 10:50:00,
2014-01-20 03:00:00,39.0,11.6,30.14,SSE,158,0.0,6.0,32,0.00,,,-99.99,Weather View 32 v60,2014-01-20 11:00:00,
2014-01-20 03:05:00,38.0,11.4,30.14,SSE,158,0.0,6.0,33,0.00,,,-99.99,Weather View 32 v60,2014-01-20 11:05:00,
2014-01-20 03:15:00,37.0,11.9,30.14,SSW,202,0.0,6.0,35,0.00,,,-99.99,Weather View 32 v60,2014-01-20 11:15:00,
2014-01-20 03:20:00,37.0,12.5,30.14,SSE,158,0.0,6.0,36,0.00,,,-99.99,Weather View 32 v60,2014-01-20 11:20:00,
2014-01-20 03:25:00,36.0,12.2,30.14,SSE,158,0.0,3.0,37,0.00,,,-99.99,Weather View 32 v60,2014-01-20 11:25:00,
2014-01-20 03:30:00,36.0,12.8,30.14,SSE,158,0.0,3.0,38,0.00,,,-99.99,Weather View 32 v60,2014-01-20 11:30:00,
2014-01-20 03:35:00,35.0,11.9,30.14,SSE,158,0.0,2.0,38,0.00,,,-99.99,Weather View 32 v60,2014-01-20 11:35:00,
2014-01-20 03:40:00,35.0,12.5,30.14,West,270,0.0,1.0,39,0.00,,,-99.99,Weather View 32 v60,2014-01-20 11:40:00,
2014-01-20 03:45:00,35.0,13.7,30.14,East,90,0.0,1.0,41,0.00,,,-99.99,Weather View 32 v60,2014-01-20 11:45:00,
2014-01-20 03:50:00,34.0,12.8,30.14,SSE,158,0.0,1.0,41,0.00,,,-99.99,Weather View 32 v60,2014-01-20 11:50:00,
2014-01-20 03:55:00,34.0,13.3,30.14,South,180,0.0,1.0,42,0.00,,,-99.99,Weather View 32 v60,2014-01-20 11:55:00,
2014-01-20 04:00:00,34.0,13.8,30.14,SE,135,0.0,1.0,43,0.00,,,-99.99,Weather View 32 v60,2014-01-20 12:00:00,
2014-01-20 04:05:00,34.0,13.8,30.14,SE,135,0.0,1.0,43,0.00,,,-99.99,Weather View 32 v60,2014-01-20 12:05:00,
2014-01-20 04:10:00,33.0,13.4,30.14,SE,135,0.0,1.0,44,0.00,,,-99.99,Weather View 32 v60,2014-01-20 12:10:00,
2014-01-20 04:15:00,33.0,13.4,30.14,SE,135,0.0,0.0,44,0.00,,,-99.99,Weather View 32 v60,2014-01-20 12:15:00,
2014-01-20 04:25:00,33.0,14.0,30.14,SSE,158,0.0,0.0,45,0.00,,,-99.99,Weather View 32 v60,2014-01-20 12:25:00,
2014-01-20 04:30:00,33.0,14.0,30.14,SSE,158,0.0,0.0,45,0.00,,,-99.99,Weather View 32 v60,2014-01-20 12:30:00,
2014-01-20 04:35:00,33.0,14.5,30.14,SE,135,0.0,3.0,46,0.00,,,-99.99,Weather View 32 v60,2014-01-20 12:35:00,
2014-01-20 04:40:00,34.0,14.9,30.14,SE,135,0.0,3.0,45,0.00,,,-99.99,Weather View 32 v60,2014-01-20 12:40:00,
2014-01-20 04:45:00,34.0,14.9,30.15,SE,135,0.0,3.0,45,0.00,,,-99.99,Weather View 32 v60,2014-01-20 12:45:00,
2014-01-20 04:52:00,34.0,14.9,30.15,SE,135,0.0,3.0,45,0.00,,,-99.99,Weather View 32 v60,2014-01-20 12:52:00,
2014-01-20 05:00:00,33.0,14.0,30.15,ESE,112,0.0,3.0,45,0.00,,,-99.99,Weather View 32 v60,2014-01-20 13:00:00,
2014-01-20 05:05:00,33.0,14.0,30.15,SSE,158,0.0,3.0,45,0.00,,,-99.99,Weather View 32 v60,2014-01-20 13:05:00,
2014-01-20 05:10:00,33.0,14.0,30.15,ESE,112,0.0,3.0,45,0.00,,,-99.99,Weather View 32 v60,2014-01-20 13:10:00,
2014-01-20 05:15:00,33.0,14.0,30.15,ESE,112,0.0,3.0,45,0.00,,,-99.99,Weather View 32 v60,2014-01-20 13:15:00,
2014-01-20 05:20:00,33.0,14.0,30.16,ESE,112,0.0,3.0,45,0.00,,,-99.99,Weather View 32 v60,2014-01-20 13:20:00,
2014-01-20 05:30:00,32.0,13.0,30.16,WSW,248,0.0,3.0,45,0.00,,,-99.99,Weather View 32 v60,2014-01-20 13:30:00,
2014-01-20 05:35:00,32.0,13.5,30.16,WSW,248,1.0,3.0,46,0.00,,,-99.99,Weather View 32 v60,2014-01-20 13:35:00,
2014-01-20 05:40:00,32.0,13.0,30.16,ENE,68,0.0,3.0,45,0.00,,,-99.99,Weather View 32 v60,2014-01-20 13:40:00,
2014-01-20 05:45:00,33.0,12.9,30.16,SSE,158,0.0,3.0,43,0.00,,,-99.99,Weather View 32 v60,2014-01-20 13:45:00,
2014-01-20 05:52:00,33.0,12.9,30.16,SW,225,0.0,3.0,43,0.00,,,-99.99,Weather View 32 v60,2014-01-20 13:52:00,
2014-01-20 06:00:00,33.0,12.9,30.17,SE,135,0.0,3.0,43,0.00,,,-99.99,Weather View 32 v60,2014-01-20 14:00:00,
2014-01-20 06:05:00,33.0,12.9,30.17,South,180,0.0,3.0,43,0.00,,,-99.99,Weather View 32 v60,2014-01-20 14:05:00,
2014-01-20 06:10:00,33.0,13.4,30.17,SSE,158,0.0,3.0,44,0.00,,,-99.99,Weather View 32 v60,2014-01-20 14:10:00,
2014-01-20 06:15:00,33.0,13.4,30.17,SSE,158,0.0,3.0,44,0.00,,,-99.99,Weather View 32 v60,2014-01-20 14:15:00,
2014-01-20 06:25:00,33.0,14.0,30.17,SE,135,0.0,3.0,45,0.00,,,-99.99,Weather View 32 v60,2014-01-20 14:25:00,
2014-01-20 06:30:00,33.0,14.0,30.18,South,180,0.0,3.0,45,0.00,,,-99.99,Weather View 32 v60,2014-01-20 14:30:00,
2014-01-20 06:35:00,32.0,13.0,30.18,West,270,3.0,3.0,45,0.00,,,-99.99,Weather View 32 v60,2014-01-20 14:35:00,
2014-01-20 06:40:00,33.0,12.9,30.18,West,270,3.0,6.0,43,0.00,,,-99.99,Weather View 32 v60,2014-01-20 14:40:00,
2014-01-20 06:45:00,35.0,12.5,30.19,NNE,22,2.0,7.0,39,0.00,,,-99.99,Weather View 32 v60,2014-01-20 14:45:00,
2014-01-20 06:53:00,37.0,12.5,30.19,ENE,68,3.0,7.0,36,0.00,,,-99.99,Weather View 32 v60,2014-01-20 14:53:00,
2014-01-20 07:00:00,40.0,12.5,30.19,NNE,22,2.0,7.0,32,0.00,,,-99.99,Weather View 32 v60,2014-01-20 15:00:00,
2014-01-20 07:05:00,40.0,11.8,30.20,WNW,292,4.0,7.0,31,0.00,,,-99.99,Weather View 32 v60,2014-01-20 15:05:00,
2014-01-20 07:10:00,41.0,11.9,30.20,North,0,3.0,7.0,30,0.00,,,-99.99,Weather View 32 v60,2014-01-20 15:10:00,
2014-01-20 07:20:00,41.0,11.9,30.20,ESE,112,0.0,7.0,30,0.00,,,-99.99,Weather View 32 v60,2014-01-20 15:20:00,
2014-01-20 07:25:00,41.0,11.9,30.21,WSW,248,0.0,7.0,30,0.00,,,-99.99,Weather View 32 v60,2014-01-20 15:25:00,
2014-01-20 07:30:00,41.0,11.9,30.21,SSE,158,0.0,7.0,30,0.00,,,-99.99,Weather View 32 v60,2014-01-20 15:30:00,
2014-01-20 07:35:00,41.0,12.6,30.21,South,180,0.0,7.0,31,0.00,,,-99.99,Weather View 32 v60,2014-01-20 15:35:00,
2014-01-20 07:40:00,40.0,12.5,30.22,SW,225,0.0,7.0,32,0.00,,,-99.99,Weather View 32 v60,2014-01-20 15:40:00,
2014-01-20 07:45:00,40.0,12.5,30.22,SSW,202,0.0,7.0,32,0.00,,,-99.99,Weather View 32 v60,2014-01-20 15:45:00,
2014-01-20 07:53:00,40.0,12.5,30.22,SSW,202,0.0,7.0,32,0.00,,,-99.99,Weather View 32 v60,2014-01-20 15:53:00,
2014-01-20 08:00:00,41.0,14.1,30.23,South,180,1.0,7.0,33,0.00,,,-99.99,Weather View 32 v60,2014-01-20 16:00:00,
2014-01-20 08:05:00,41.0,14.1,30.24,South,180,0.0,4.0,33,0.00,,,-99.99,Weather View 32 v60,2014-01-20 16:05:00,
2014-01-20 08:10:00,42.0,14.2,30.24,SSE,158,0.0,19.0,32,0.00,,,-99.99,Weather View 32 v60,2014-01-20 16:10:00,
2014-01-20 08:15:00,42.0,14.2,30.24,SW,225,1.0,19.0,32,0.00,,,-99.99,Weather View 32 v60,2014-01-20 16:15:00,
2014-01-20 08:25:00,43.0,14.4,30.25,ENE,68,0.0,19.0,31,0.00,,,-99.99,Weather View 32 v60,2014-01-20 16:25:00,
2014-01-20 08:30:00,45.0,15.4,30.25,NNE,22,2.0,19.0,30,0.00,,,-99.99,Weather View 32 v60,2014-01-20 16:30:00,
2014-01-20 08:35:00,45.0,14.6,30.25,NE,45,1.0,19.0,29,0.00,,,-99.99,Weather View 32 v60,2014-01-20 16:35:00,
2014-01-20 08:40:00,47.0,14.7,30.25,NE,45,2.0,19.0,27,0.00,,,-99.99,Weather View 32 v60,2014-01-20 16:40:00,
2014-01-20 08:50:00,49.0,12.8,30.26,NNE,22,3.0,19.0,23,0.00,,,-99.99,Weather View 32 v60,2014-01-20 16:50:00,
2014-01-20 08:55:00,49.0,12.8,30.26,NE,45,1.0,19.0,23,0.00,,,-99.99,Weather View 32 v60,2014-01-20 16:55:00,
2014-01-20 09:00:00,50.0,13.6,30.26,NE,45,1.0,19.0,23,0.00,,,-99.99,Weather View 32 v60,2014-01-20 17:00:00,
2014-01-20 09:05:00,50.0,12.6,30.27,NE,45,1.0,19.0,22,0.00,,,-99.99,Weather View 32 v60,2014-01-20 17:05:00,
2014-01-20 09:10:00,51.0,14.4,30.27,NNE,22,1.0,19.0,23,0.00,,,-99.99,Weather View 32 v60,2014-01-20 17:10:00,
2014-01-20 09:15:00,51.0,13.4,30.28,ESE,112,1.0,5.0,22,0.00,,,-99.99,Weather View 32 v60,2014-01-20 17:15:00,
2014-01-20 09:25:00,53.0,15.1,30.28,SSE,158,1.0,5.0,22,0.00,,,-99.99,Weather View 32 v60,2014-01-20 17:25:00,
2014-01-20 09:30:00,53.0,15.1,30.29,SSW,202,2.0,5.0,22,0.00,,,-99.99,Weather View 32 v60,2014-01-20 17:30:00,
2014-01-20 09:35:00,53.0,15.1,30.29,SSE,158,1.0,5.0,22,0.00,,,-99.99,Weather View 32 v60,2014-01-20 17:35:00,
2014-01-20 09:45:00,54.0,14.9,30.29,SSW,202,2.0,5.0,21,0.00,,,-99.99,Weather View 32 v60,2014-01-20 17:45:00,
2014-01-20 09:50:00,54.0,14.9,30.29,WSW,248,1.0,5.0,21,0.00,,,-99.99,Weather View 32 v60,2014-01-20 17:50:00,
2014-01-20 09:55:00,55.0,15.7,30.29,SE,135,0.0,5.0,21,0.00,,,-99.99,Weather View 32 v60,2014-01-20 17:55:00,
2014-01-20 10:05:00,56.0,15.4,30.28,SE,135,1.0,5.0,20,0.00,,,-99.99,Weather View 32 v60,2014-01-20 18:05:00,
2014-01-20 10:15:00,57.0,15.1,30.28,North,0,2.0,5.0,19,0.00,,,-99.99,Weather View 32 v60,2014-01-20 18:15:00,
2014-01-20 10:25:00,57.0,13.8,30.28,NE,45,1.0,6.0,18,0.00,,,-99.99,Weather View 32 v60,2014-01-20 18:25:00,
2014-01-20 10:35:00,58.0,13.4,30.27,North,0,3.0,6.0,17,0.00,,,-99.99,Weather View 32 v60,2014-01-20 18:35:00,
2014-01-20 10:40:00,58.0,14.7,30.27,WNW,292,1.0,6.0,18,0.00,,,-99.99,Weather View 32 v60,2014-01-20 18:40:00,
2014-01-20 10:45:00,58.0,14.7,30.26,NE,45,3.0,6.0,18,0.00,,,-99.99,Weather View 32 v60,2014-01-20 18:45:00,
2014-01-20 10:55:00,59.0,14.2,30.26,NW,315,3.0,6.0,17,0.00,,,-99.99,Weather View 32 v60,2014-01-20 18:55:00,
2014-01-20 11:05:00,59.0,12.8,30.26,East,90,1.0,6.0,16,0.00,,,-99.99,Weather View 32 v60,2014-01-20 19:05:00,
2014-01-20 11:10:00,59.0,11.3,30.25,NNE,22,2.0,6.0,15,0.00,,,-99.99,Weather View 32 v60,2014-01-20 19:10:00,
2014-01-20 11:20:00,59.0,11.3,30.24,East,90,3.0,6.0,15,0.00,,,-99.99,Weather View 32 v60,2014-01-20 19:20:00,
2014-01-20 11:25:00,59.0,11.3,30.24,East,90,4.0,6.0,15,0.00,,,-99.99,Weather View 32 v60,2014-01-20 19:25:00,
2014-01-20 11:30:00,59.0,11.3,30.24,East,90,0.0,6.0,15,0.00,,,-99.99,Weather View 32 v60,2014-01-20 19:30:00,
2014-01-20 11:35:00,60.0,12.1,30.24,North,0,4.0,6.0,15,0.00,,,-99.99,Weather View 32 v60,2014-01-20 19:35:00,
2014-01-20 11:45:00,60.0,12.1,30.23,NE,45,1.0,6.0,15,0.00,,,-99.99,Weather View 32 v60,2014-01-20 19:45:00,
2014-01-20 11:50:00,60.0,12.1,30.23,ENE,68,3.0,5.0,15,0.00,,,-99.99,Weather View 32 v60,2014-01-20 19:50:00,
2014-01-20 11:55:00,61.0,11.4,30.23,East,90,1.0,5.0,14,0.00,,,-99.99,Weather View 32 v60,2014-01-20 19:55:00,
2014-01-20 12:00:00,61.0,12.9,30.23,ENE,68,2.0,5.0,15,0.00,,,-99.99,Weather View 32 v60,2014-01-20 20:00:00,
2014-01-20 12:05:00,61.0,12.9,30.22,ESE,112,1.0,5.0,15,0.00,,,-99.99,Weather View 32 v60,2014-01-20 20:05:00,
2014-01-20 12:10:00,62.0,13.7,30.22,ENE,68,2.0,5.0,15,0.00,,,-99.99,Weather View 32 v60,2014-01-20 20:10:00,
2014-01-20 12:15:00,62.0,13.7,30.22,SE,135,2.0,5.0,15,0.00,,,-99.99,Weather View 32 v60,2014-01-20 20:15:00,
2014-01-20 12:20:00,62.0,13.7,30.22,SW,225,4.0,6.0,15,0.00,,,-99.99,Weather View 32 v60,2014-01-20 20:20:00,
2014-01-20 12:30:00,63.0,13.0,30.21,ENE,68,2.0,6.0,14,0.00,,,-99.99,Weather View 32 v60,2014-01-20 20:30:00,
2014-01-20 12:35:00,63.0,14.5,30.21,SE,135,3.0,6.0,15,0.00,,,-99.99,Weather View 32 v60,2014-01-20 20:35:00,
2014-01-20 12:45:00,63.0,14.5,30.21,ESE,112,2.0,6.0,15,0.00,,,-99.99,Weather View 32 v60,2014-01-20 20:45:00,
2014-01-20 12:50:00,63.0,13.0,30.20,East,90,3.0,6.0,14,0.00,,,-99.99,Weather View 32 v60,2014-01-20 20:50:00,
2014-01-20 12:55:00,63.0,13.0,30.21,SSE,158,3.0,6.0,14,0.00,,,-99.99,Weather View 32 v60,2014-01-20 20:55:00,
2014-01-20 13:00:00,64.0,13.8,30.20,ESE,112,2.0,6.0,14,0.00,,,-99.99,Weather View 32 v60,2014-01-20 21:00:00,
2014-01-20 13:05:00,64.0,13.8,30.20,SSE,158,1.0,6.0,14,0.00,,,-99.99,Weather View 32 v60,2014-01-20 21:05:00,
2014-01-20 13:15:00,64.0,12.1,30.20,WSW,248,2.0,6.0,13,0.00,,,-99.99,Weather View 32 v60,2014-01-20 21:15:00,
2014-01-20 13:25:00,64.0,12.1,30.19,SE,135,0.0,6.0,13,0.00,,,-99.99,Weather View 32 v60,2014-01-20 21:25:00,
2014-01-20 13:30:00,64.0,12.1,30.19,East,90,2.0,6.0,13,0.00,,,-99.99,Weather View 32 v60,2014-01-20 21:30:00,
2014-01-20 13:35:00,64.0,12.1,30.19,East,90,3.0,6.0,13,0.00,,,-99.99,Weather View 32 v60,2014-01-20 21:35:00,
2014-01-20 13:40:00,65.0,12.9,30.19,ENE,68,3.0,6.0,13,0.00,,,-99.99,Weather View 32 v60,2014-01-20 21:40:00,
2014-01-20 13:45:00,65.0,12.9,30.19,ESE,112,1.0,6.0,13,0.00,,,-99.99,Weather View 32 v60,2014-01-20 21:45:00,
2014-01-20 13:55:00,65.0,12.9,30.19,ESE,112,2.0,6.0,13,0.00,,,-99.99,Weather View 32 v60,2014-01-20 21:55:00,
2014-01-20 14:00:00,65.0,12.9,30.19,NE,45,1.0,6.0,13,0.00,,,-99.99,Weather View 32 v60,2014-01-20 22:00:00,
2014-01-20 14:05:00,65.0,12.9,30.19,ENE,68,3.0,6.0,13,0.00,,,-99.99,Weather View 32 v60,2014-01-20 22:05:00,
2014-01-20 14:10:00,65.0,12.9,30.20,ESE,112,3.0,5.0,13,0.00,,,-99.99,Weather View 32 v60,2014-01-20 22:10:00,
2014-01-20 14:15:00,65.0,12.9,30.19,NE,45,1.0,6.0,13,0.00,,,-99.99,Weather View 32 v60,2014-01-20 22:15:00,
2014-01-20 14:25:00,65.0,11.1,30.19,North,0,3.0,6.0,12,0.00,,,-99.99,Weather View 32 v60,2014-01-20 22:25:00,
2014-01-20 14:30:00,65.0,12.9,30.20,NW,315,1.0,6.0,13,0.00,,,-99.99,Weather View 32 v60,2014-01-20 22:30:00,
2014-01-20 14:35:00,64.0,10.3,30.20,ENE,68,2.0,6.0,12,0.00,,,-99.99,Weather View 32 v60,2014-01-20 22:35:00,
2014-01-20 14:45:00,65.0,11.1,30.19,ENE,68,2.0,6.0,12,0.00,,,-99.99,Weather View 32 v60,2014-01-20 22:45:00,
2014-01-20 14:50:00,65.0,11.1,30.20,ESE,112,1.0,6.0,12,0.00,,,-99.99,Weather View 32 v60,2014-01-20 22:50:00,
2014-01-20 14:55:00,65.0,12.9,30.19,SE,135,0.0,6.0,13,0.00,,,-99.99,Weather View 32 v60,2014-01-20 22:55:00,
2014-01-20 15:05:00,65.0,12.9,30.20,SSE,158,1.0,6.0,13,0.00,,,-99.99,Weather View 32 v60,2014-01-20 23:05:00,
2014-01-20 15:10:00,65.0,11.1,30.20,ESE,112,1.0,6.0,12,0.00,,,-99.99,Weather View 32 v60,2014-01-20 23:10:00,
2014-01-20 15:15:00,65.0,11.1,30.19,East,90,1.0,6.0,12,0.00,,,-99.99,Weather View 32 v60,2014-01-20 23:15:00,
2014-01-20 15:25:00,65.0,12.9,30.19,ESE,112,0.0,6.0,13,0.00,,,-99.99,Weather View 32 v60,2014-01-20 23:25:00,
2014-01-20 15:30:00,65.0,12.9,30.20,SW,225,1.0,5.0,13,0.00,,,-99.99,Weather View 32 v60,2014-01-20 23:30:00,
2014-01-20 15:40:00,65.0,11.1,30.20,NNE,22,1.0,5.0,12,0.00,,,-99.99,Weather View 32 v60,2014-01-20 23:40:00,
2014-01-20 15:45:00,65.0,12.9,30.20,NE,45,1.0,5.0,13,0.00,,,-99.99,Weather View 32 v60,2014-01-20 23:45:00,
2014-01-20 15:55:00,65.0,12.9,30.20,ESE,112,1.0,5.0,13,0.00,,,-99.99,Weather View 32 v60,2014-01-20 23:55:00,
2014-01-20 16:00:00,65.0,12.9,30.19,ENE,68,1.0,5.0,13,0.00,,,-99.99,Weather View 32 v60,2014-01-21 00:00:00,
2014-01-20 16:05:00,65.0,12.9,30.20,SE,135,0.0,5.0,13,0.00,,,-99.99,Weather View 32 v60,2014-01-21 00:05:00,
2014-01-20 16:15:00,64.0,12.1,30.20,SE,135,0.0,3.0,13,0.00,,,-99.99,Weather View 32 v60,2014-01-21 00:15:00,
2014-01-20 16:20:00,64.0,15.3,30.19,SE,135,0.0,3.0,15,0.00,,,-99.99,Weather View 32 v60,2014-01-21 00:20:00,
2014-01-20 16:25:00,63.0,14.5,30.19,SE,135,0.0,3.0,15,0.00,,,-99.99,Weather View 32 v60,2014-01-21 00:25:00,
2014-01-20 16:35:00,62.0,15.2,30.20,ESE,112,0.0,3.0,16,0.00,,,-99.99,Weather View 32 v60,2014-01-21 00:35:00,
2014-01-20 16:40:00,62.0,16.6,30.20,ESE,112,0.0,3.0,17,0.00,,,-99.99,Weather View 32 v60,2014-01-21 00:40:00,
2014-01-20 16:50:00,61.0,15.8,30.21,SE,135,0.0,3.0,17,0.00,,,-99.99,Weather View 32 v60,2014-01-21 00:50:00,
2014-01-20 16:59:00,60.0,16.3,30.21,ESE,112,0.0,3.0,18,0.00,,,-99.99,Weather View 32 v60,2014-01-21 00:59:00,
2014-01-20 17:05:00,58.0,15.9,30.21,SSE,158,0.0,1.0,19,0.00,,,-99.99,Weather View 32 v60,2014-01-21 01:05:00,
2014-01-20 17:10:00,57.0,16.2,30.22,SSE,158,0.0,0.0,20,0.00,,,-99.99,Weather View 32 v60,2014-01-21 01:10:00,
2014-01-20 17:15:00,57.0,16.2,30.21,SE,135,0.0,0.0,20,0.00,,,-99.99,Weather View 32 v60,2014-01-21 01:15:00,
2014-01-20 17:25:00,55.0,15.7,30.22,ESE,112,0.0,0.0,21,0.00,,,-99.99,Weather View 32 v60,2014-01-21 01:25:00,
2014-01-20 17:30:00,54.0,15.9,30.22,SSE,158,0.0,0.0,22,0.00,,,-99.99,Weather View 32 v60,2014-01-21 01:30:00,
2014-01-20 17:35:00,54.0,17.0,30.22,NE,45,0.0,0.0,23,0.00,,,-99.99,Weather View 32 v60,2014-01-21 01:35:00,
2014-01-20 17:45:00,53.0,18.1,30.23,ESE,112,0.0,0.0,25,0.00,,,-99.99,Weather View 32 v60,2014-01-21 01:45:00,
2014-01-20 17:50:00,52.0,17.2,30.23,ESE,112,0.0,0.0,25,0.00,,,-99.99,Weather View 32 v60,2014-01-21 01:50:00,
2014-01-20 17:55:00,52.0,18.1,30.24,SE,135,0.0,0.0,26,0.00,,,-99.99,Weather View 32 v60,2014-01-21 01:55:00,
2014-01-20 18:05:00,51.0,19.0,30.24,SE,135,0.0,0.0,28,0.00,,,-99.99,Weather View 32 v60,2014-01-21 02:05:00,
2014-01-20 18:10:00,50.0,18.1,30.24,NNE,22,0.0,0.0,28,0.00,,,-99.99,Weather View 32 v60,2014-01-21 02:10:00,
2014-01-20 18:15:00,50.0,19.7,30.24,ESE,112,0.0,0.0,30,0.00,,,-99.99,Weather View 32 v60,2014-01-21 02:15:00,
2014-01-20 18:20:00,49.0,18.9,30.24,North,0,0.0,0.0,30,0.00,,,-99.99,Weather View 32 v60,2014-01-21 02:20:00,
2014-01-20 18:30:00,49.0,18.1,30.25,NE,45,0.0,0.0,29,0.00,,,-99.99,Weather View 32 v60,2014-01-21 02:30:00,
2014-01-20 18:35:00,49.0,18.1,30.25,SSE,158,0.0,0.0,29,0.00,,,-99.99,Weather View 32 v60,2014-01-21 02:35:00,
2014-01-20 18:40:00,48.0,18.0,30.25,NE,45,0.0,0.0,30,0.00,,,-99.99,Weather View 32 v60,2014-01-21 02:40:00,
2014-01-20 18:45:00,48.0,18.0,30.25,NNE,22,0.0,0.0,30,0.00,,,-99.99,Weather View 32 v60,2014-01-21 02:45:00,
2014-01-20 18:50:00,48.0,18.0,30.26,South,180,0.0,0.0,30,0.00,,,-99.99,Weather View 32 v60,2014-01-21 02:50:00,
2014-01-20 18:55:00,48.0,18.0,30.26,East,90,0.0,0.0,30,0.00,,,-99.99,Weather View 32 v60,2014-01-21 02:55:00,
2014-01-20 19:00:00,47.0,17.1,30.25,SSW,202,0.0,0.0,30,0.00,,,-99.99,Weather View 32 v60,2014-01-21 03:00:00,
2014-01-20 19:10:00,47.0,17.1,30.26,South,180,0.0,1.0,30,0.00,,,-99.99,Weather View 32 v60,2014-01-21 03:10:00,
2014-01-20 19:15:00,47.0,17.1,30.26,South,180,0.0,1.0,30,0.00,,,-99.99,Weather View 32 v60,2014-01-21 03:15:00,
2014-01-20 19:20:00,47.0,17.9,30.26,SSE,158,0.0,2.0,31,0.00,,,-99.99,Weather View 32 v60,2014-01-21 03:20:00,
2014-01-20 19:25:00,46.0,17.0,30.26,South,180,2.0,2.0,31,0.00,,,-99.99,Weather View 32 v60,2014-01-21 03:25:00,
2014-01-20 19:35:00,46.0,17.0,30.26,WSW,248,3.0,3.0,31,0.00,,,-99.99,Weather View 32 v60,2014-01-21 03:35:00,
2014-01-20 19:40:00,46.0,17.0,30.26,WSW,248,1.0,3.0,31,0.00,,,-99.99,Weather View 32 v60,2014-01-21 03:40:00,
2014-01-20 19:45:00,46.0,17.0,30.26,WNW,292,1.0,3.0,31,0.00,,,-99.99,Weather View 32 v60,2014-01-21 03:45:00,
2014-01-20 19:50:00,46.0,17.0,30.26,SE,135,0.0,3.0,31,0.00,,,-99.99,Weather View 32 v60,2014-01-21 03:50:00,
2014-01-20 19:55:00,46.0,17.0,30.26,South,180,0.0,3.0,31,0.00,,,-99.99,Weather View 32 v60,2014-01-21 03:55:00,
2014-01-20 20:00:00,46.0,17.7,30.26,SSE,158,0.0,3.0,32,0.00,,,-99.99,Weather View 32 v60,2014-01-21 04:00:00,
2014-01-20 20:10:00,46.0,18.5,30.26,ENE,68,0.0,3.0,33,0.00,,,-99.99,Weather View 32 v60,2014-01-21 04:10:00,
2014-01-20 20:20:00,45.0,17.6,30.27,ESE,112,0.0,3.0,33,0.00,,,-99.99,Weather View 32 v60,2014-01-21 04:20:00,
2014-01-20 20:25:00,45.0,18.3,30.27,SSE,158,0.0,3.0,34,0.00,,,-99.99,Weather View 32 v60,2014-01-21 04:25:00,
2014-01-20 20:35:00,45.0,18.3,30.28,SSE,158,0.0,3.0,34,0.00,,,-99.99,Weather View 32 v60,2014-01-21 04:35:00,
2014-01-20 20:40:00,44.0,18.1,30.28,South,180,0.0,3.0,35,0.00,,,-99.99,Weather View 32 v60,2014-01-21 04:40:00,
2014-01-20 20:45:00,44.0,18.7,30.28,South,180,0.0,3.0,36,0.00,,,-99.99,Weather View 32 v60,2014-01-21 04:45:00,
2014-01-20 20:50:00,43.0,18.5,30.28,NE,45,0.0,3.0,37,0.00,,,-99.99,Weather View 32 v60,2014-01-21 04:50:00,
2014-01-20 20:55:00,43.0,18.5,30.29,South,180,0.0,3.0,37,0.00,,,-99.99,Weather View 32 v60,2014-01-21 04:55:00,
2014-01-20 21:00:00,43.0,18.5,30.29,South,180,0.0,3.0,37,0.00,,,-99.99,Weather View 32 v60,2014-01-21 05:00:00,
2014-01-20 21:01:00,43.0,18.5,30.29,South,180,0.0,3.0,37,0.00,,,-99.99,Weather View 32 v60,2014-01-21 05:01:00,
2014-01-20 21:05:00,43.0,19.1,30.29,SE,135,0.0,3.0,38,0.00,,,-99.99,Weather View 32 v60,2014-01-21 05:05:00,
2014-01-20 21:10:00,43.0,19.1,30.29,West,270,0.0,3.0,38,0.00,,,-99.99,Weather View 32 v60,2014-01-21 05:10:00,
2014-01-20 21:15:00,42.0,18.8,30.30,SE,135,0.0,3.0,39,0.00,,,-99.99,Weather View 32 v60,2014-01-21 05:15:00,
2014-01-20 21:20:00,42.0,18.8,30.30,WSW,248,0.0,1.0,39,0.00,,,-99.99,Weather View 32 v60,2014-01-21 05:20:00,
2014-01-20 21:25:00,42.0,18.8,30.30,SSE,158,0.0,1.0,39,0.00,,,-99.99,Weather View 32 v60,2014-01-21 05:25:00,
2014-01-20 21:30:00,42.0,18.8,30.30,SW,225,0.0,1.0,39,0.00,,,-99.99,Weather View 32 v60,2014-01-21 05:30:00,
2014-01-20 21:40:00,42.0,18.2,30.31,SW,225,1.0,2.0,38,0.00,,,-99.99,Weather View 32 v60,2014-01-21 05:40:00,
2014-01-20 21:45:00,42.0,18.2,30.31,SSW,202,1.0,2.0,38,0.00,,,-99.99,Weather View 32 v60,2014-01-21 05:45:00,
2014-01-20 21:55:00,41.0,17.3,30.31,SE,135,0.0,2.0,38,0.00,,,-99.99,Weather View 32 v60,2014-01-21 05:55:00,
2014-01-20 22:02:00,41.0,17.3,30.31,SE,135,0.0,2.0,38,0.00,,,-99.99,Weather View 32 v60,2014-01-21 06:02:00,
2014-01-20 22:10:00,41.0,17.3,30.31,SSE,158,0.0,2.0,38,0.00,,,-99.99,Weather View 32 v60,2014-01-21 06:10:00,
2014-01-20 22:15:00,41.0,17.9,30.31,SSE,158,0.0,2.0,39,0.00,,,-99.99,Weather View 32 v60,2014-01-21 06:15:00,
2014-01-20 22:20:00,41.0,17.9,30.31,SSW,202,0.0,2.0,39,0.00,,,-99.99,Weather View 32 v60,2014-01-21 06:20:00,
2014-01-20 22:25:00,40.0,17.6,30.31,SSW,202,1.0,3.0,40,0.00,,,-99.99,Weather View 32 v60,2014-01-21 06:25:00,
2014-01-20 22:30:00,40.0,17.6,30.31,WNW,292,0.0,3.0,40,0.00,,,-99.99,Weather View 32 v60,2014-01-21 06:30:00,
2014-01-20 22:35:00,40.0,17.6,30.31,SSW,202,0.0,3.0,40,0.00,,,-99.99,Weather View 32 v60,2014-01-21 06:35:00,
2014-01-20 22:45:00,40.0,18.2,30.31,West,270,0.0,3.0,41,0.00,,,-99.99,Weather View 32 v60,2014-01-21 06:45:00,
2014-01-20 22:50:00,40.0,17.6,30.31,West,270,0.0,3.0,40,0.00,,,-99.99,Weather View 32 v60,2014-01-21 06:50:00,
2014-01-20 22:55:00,39.0,16.7,30.31,ENE,68,0.0,3.0,40,0.00,,,-99.99,Weather View 32 v60,2014-01-21 06:55:00,
2014-01-20 23:00:00,39.0,16.7,30.31,South,180,0.0,3.0,40,0.00,,,-99.99,Weather View 32 v60,2014-01-21 07:00:00,
2014-01-20 23:05:00,39.0,16.7,30.30,SSW,202,0.0,3.0,40,0.00,,,-99.99,Weather View 32 v60,2014-01-21 07:05:00,
2014-01-20 23:10:00,39.0,16.7,30.30,SSE,158,0.0,3.0,40,0.00,,,-99.99,Weather View 32 v60,2014-01-21 07:10:00,
2014-01-20 23:15:00,39.0,16.7,30.30,SSE,158,0.0,3.0,40,0.00,,,-99.99,Weather View 32 v60,2014-01-21 07:15:00,
2014-01-20 23:25:00,39.0,16.7,30.30,South,180,0.0,3.0,40,0.00,,,-99.99,Weather View 32 v60,2014-01-21 07:25:00,
2014-01-20 23:35:00,39.0,16.1,30.30,SSE,158,0.0,1.0,39,0.00,,,-99.99,Weather View 32 v60,2014-01-21 07:35:00,
2014-01-20 23:40:00,39.0,16.1,30.30,ESE,112,0.0,1.0,39,0.00,,,-99.99,Weather View 32 v60,2014-01-21 07:40:00,
2014-01-20 23:45:00,39.0,16.1,30.30,SE,135,0.0,1.0,39,0.00,,,-99.99,Weather View 32 v60,2014-01-21 07:45:00,
2014-01-20 23:50:00,39.0,16.1,30.29,SSE,158,0.0,1.0,39,0.00,,,-99.99,Weather View 32 v60,2014-01-21 07:50:00,
2014-01-20 23:55:00,39.0,16.1,30.29,South,180,0.0,0.0,39,0.00,,,-99.99,Weather View 32 v60,2014-01-21 07:55:00,